Location: Dompnac
(44.5644°N, 4.1026°E)
Time: 04:29:05
(UTC+00:00)

Cosmos 2082 Rocket - Pass Details

Date: 23 June 2021
Orbit: 832 x 855 km, 71.0° (Epoch: 03 August)

Event Time Altitude Azimuth Distance (km) Brightness Sun altitude
Exits shadow 02:20:28 - 165° (SSE) 3,026 4.7 -13.4°
Reaches altitude 10° 02:22:18 10° 155° (SSE) 2,433 4.3 -13.2°
Maximum altitude 02:26:45 25° 102° (ESE) 1,620 4.0 -12.7°
Drops below altitude 10° 02:31:14 10° 49° (NE) 2,450 6.1 -12.2°
Sets 02:34:03 0° 37° (NE) 3,391 7.5 -11.9°
